Location: Hamburg
(53.5554°N, 9.9941°E)
Time: 16:43:53
(UTC+01:00)

N. Korean satellite - Visible Passes

Search period start: 21 November 2017 00:00
Search period end: 01 December 2017 00:00
Orbit: 460 x 514 km, 97.2° (Epoch: 20 November)

Date Brightness Start Highest point End Pass type
(mag) Time Alt. Az. Time Alt. Az. Time Alt. Az.
21 Nov 8.8 06:40:45 10° NNE 06:44:08 31° E 06:47:30 10° SSE visible
21 Nov 7.3 17:23:15 10° SE 17:26:25 31° ENE 17:29:39 10° N visible
21 Nov 8.8 18:56:58 10° SSW 18:59:59 26° W 19:03:05 10° NW visible
22 Nov 9.7 06:17:45 10° NE 06:20:29 19° E 06:23:13 10° SE visible
22 Nov 7.9 17:00:29 10° ESE 17:03:07 20° ENE 17:05:48 10° NNE visible
22 Nov 7.7 18:32:57 10° S 18:36:22 45° W 18:39:53 10° NNW visible
23 Nov 10.2 05:55:26 10° ENE 05:56:45 11° E 05:58:03 10° ESE visible
23 Nov 6.5 18:09:17 10° SSE 18:12:50 84° WSW 18:16:30 10° NNW visible
24 Nov 7.6 07:03:36 10° NNE 07:07:17 54° E 07:11:00 10° S visible
24 Nov 6.6 17:45:53 10° SSE 17:49:23 54° ENE 17:52:57 10° N visible
24 Nov 9.6 19:20:59 10° SW 19:23:15 16° W 19:25:32 10° NW visible
25 Nov 8.8 06:40:19 10° NNE 06:43:43 31° E 06:47:06 10° SSE visible
25 Nov 7.3 17:22:46 10° SE 17:25:58 31° ENE 17:29:15 10° N visible
25 Nov 8.8 18:56:29 10° SSW 18:59:32 26° W 19:02:40 10° NW visible
26 Nov 9.7 06:17:17 10° NE 06:20:03 19° E 06:22:47 10° SE visible
26 Nov 7.9 16:59:58 10° ESE 17:02:39 20° ENE 17:05:22 10° NNE visible
26 Nov 7.6 18:32:27 10° S 18:35:54 46° W 18:39:27 10° NNW visible
27 Nov 10.2 05:54:57 10° ENE 05:56:18 12° E 05:57:37 10° ESE visible
27 Nov 6.7 07:26:35 10° NNE 07:30:22 85° WNW 07:34:09 10° SSW visible
27 Nov 6.6 18:08:46 10° SSE 18:12:21 84° WSW 18:16:03 10° NNW visible
28 Nov 7.6 07:03:07 10° NNE 07:06:50 54° E 07:10:32 10° S visible
28 Nov 6.6 17:45:22 10° SSE 17:48:52 54° ENE 17:52:29 10° N visible
28 Nov 9.6 19:20:25 10° SW 19:22:45 16° W 19:25:07 10° NW visible
29 Nov 8.8 06:39:49 10° NNE 06:43:14 31° E 06:46:37 10° SSE visible
29 Nov 7.3 17:22:14 10° SE 17:25:28 32° ENE 17:28:47 10° N visible
29 Nov 8.8 18:55:55 10° SSW 18:59:02 27° W 19:02:13 10° NW visible
30 Nov 9.7 06:16:47 10° NE 06:19:33 19° E 06:22:18 10° SE visible
30 Nov 7.9 16:59:25 10° ESE 17:02:08 20° ENE 17:04:54 10° NNE visible
30 Nov 7.6 18:31:53 10° S 18:35:23 46° W 18:38:59 10° NNW visible
